Location: Quaker Farms
(41.4276°N, 73.1557°W)
Time: 10:40:27
(UTC+00:00)

Transit 2A Rocket - All Passes

Search period start: 15 June 2021 00:00
Search period end: 25 June 2021 00:00
Orbit: 592 x 910 km, 66.7° (Epoch: 14 June)

Date Brightness Start Highest point End Pass type
(mag) Time Alt. Az. Time Alt. Az. Time Alt. Az.
15 Jun - 05:03:24 10° SE 05:05:30 13° ESE 05:07:37 10° ENE visible
15 Jun - 06:43:16 10° SW 06:47:28 55° WNW 06:51:48 10° NNE visible
15 Jun - 13:43:51 10° N 13:47:14 18° NE 13:50:46 10° E daylight
15 Jun - 15:25:11 10° NNW 15:30:16 79° WSW 15:35:50 10° SSE daylight
16 Jun - 06:00:35 10° SSW 06:04:51 78° ESE 06:09:14 10° NNE visible
16 Jun - 07:45:46 10° WNW 07:47:59 14° NW 07:50:15 10° N visible
16 Jun - 13:02:30 10° NNE 13:04:10 11° NE 13:05:53 10° ENE daylight
16 Jun - 14:42:37 10° NNW 14:47:38 62° ENE 14:53:07 10° SE daylight
16 Jun - 16:26:17 10° WNW 16:29:49 19° WSW 16:33:34 10° SSW daylight
17 Jun - 05:18:21 10° S 05:22:20 39° ESE 05:26:24 10° NE visible
17 Jun - 07:01:38 10° W 07:05:00 22° NW 07:08:29 10° N visible
17 Jun - 14:00:13 10° NNW 14:04:54 37° NE 14:09:58 10° ESE daylight
17 Jun - 15:42:50 10° NW 15:47:24 32° WSW 15:52:18 10° S daylight
18 Jun - 04:36:45 10° SSE 04:39:56 20° ESE 04:43:09 10° ENE visible
18 Jun - 06:18:11 10° WSW 06:22:10 37° NW 06:26:17 10° NNE visible
18 Jun - 13:18:01 10° N 13:22:04 24° NE 13:26:23 10° ESE daylight
18 Jun - 14:59:52 10° NW 15:04:54 55° WSW 15:10:21 10° SSE daylight
19 Jun - 03:56:56 10° ESE 03:57:38 10° ESE 03:58:21 10° E visible
19 Jun - 05:35:12 10° SW 05:39:27 70° WNW 05:43:52 10° NNE visible
19 Jun - 07:22:33 10° NW 07:22:55 10° NW 07:23:18 10° NNW visible
19 Jun - 12:36:08 10° N 12:39:06 15° NE 12:42:13 10° E daylight
19 Jun - 14:17:10 10° NNW 14:22:18 87° ENE 14:27:54 10° SSE daylight
19 Jun - 16:02:03 10° W 16:04:18 13° WSW 16:06:38 10° SW daylight
20 Jun - 04:52:39 10° SSW 04:56:52 61° ESE 05:01:12 10° NE visible
20 Jun - 06:37:06 10° W 06:39:51 16° NW 06:42:40 10° N visible
20 Jun - 13:34:40 10° NNW 13:39:38 52° NE 13:45:03 10° SE daylight
20 Jun - 15:17:54 10° WNW 15:21:56 23° WSW 15:26:14 10° SSW daylight
21 Jun - 04:10:38 10° S 04:14:24 31° ESE 04:18:15 10° NE visible
21 Jun - 05:53:16 10° WSW 05:56:55 26° NW 06:00:41 10° N visible
21 Jun - 12:52:20 10° NNW 12:56:52 32° NE 13:01:45 10° ESE daylight
21 Jun - 14:34:40 10° NW 14:39:29 39° WSW 14:44:41 10° S daylight
22 Jun - 03:29:21 10° SE 03:32:02 16° ESE 03:34:46 10° ENE visible
22 Jun - 05:10:00 10° SW 05:14:07 46° NW 05:18:24 10° NNE visible
22 Jun - 12:10:13 10° N 12:13:59 20° NE 12:17:59 10° E daylight
22 Jun - 13:51:49 10° NW 13:56:57 68° WSW 14:02:32 10° SSE daylight
23 Jun - 04:27:10 10° SSW 04:31:27 87° NW 04:35:53 10° NNE visible
23 Jun - 06:12:59 10° WNW 06:14:44 12° NW 06:16:32 10° NNW visible
23 Jun - 11:28:30 10° NNE 11:30:59 13° NE 11:33:32 10° ENE daylight
23 Jun - 13:09:11 10° NNW 13:14:20 73° ENE 13:19:57 10° SE daylight
23 Jun - 14:53:17 10° WNW 14:56:27 16° WSW 14:59:44 10° SW daylight
24 Jun - 03:44:48 10° S 03:48:54 47° ESE 03:53:08 10° NE visible
24 Jun - 05:28:34 10° W 05:31:43 19° NW 05:34:58 10° N visible
24 Jun - 12:26:44 10° NNW 12:31:37 43° NE 12:36:56 10° SE daylight
24 Jun - 14:09:37 10° NW 14:14:03 28° WSW 14:18:46 10° SSW daylight
